User: anonymous   Login
Location: Unspecified
(0.0000°N, 0.0000°E)
Time: 10:01:23
(UTC+00:00)
Language:

STARLINK-5610 - Orbit

View from above orbital plane
View from above orbital plane
View from above satellite
View from above satellite

Ground track
Ground track

The orbit is defined by the following mean orbital elements,

1 57244U          26145.17842390 +.00000000 +00000-0 -32105-4 0 00003
2 57244  43.0054 307.4367 0002050 261.0639  98.9980 15.27575757    08
Epoch (UTC): 25 May 2026 04:16:55
Eccentricity: 0.0002050
inclination: 43.0054°
perigee height: 482 km
apogee height: 484 km
right ascension of ascending node: 307.4367°
argument of perigee: 261.0639°
revolutions per day: 15.27575757
mean anomaly at epoch: 98.9980°

The dashed part of the orbit path shows where the satellite is in the earth's shadow,  

DLR